TimeEDT,TemperatureF,Dew PointF,Humidity,Sea Level PressureIn,VisibilityMPH,Wind Direction,Wind SpeedMPH,Gust SpeedMPH,PrecipitationIn,Events,Conditions,WindDirDegrees,DateUTC
12:53 AM,70.0,57.0,63,30.15,8.0,SSW,5.8,-,N/A,,Partly Cloudy,200,2013-08-26 04:53:00
1:53 AM,68.0,60.1,76,30.13,8.0,SSW,4.6,-,0.00,,Mostly Cloudy,210,2013-08-26 05:53:00
2:53 AM,68.0,59.0,73,30.13,8.0,SW,5.8,-,0.00,,Overcast,230,2013-08-26 06:53:00
3:53 AM,66.9,60.1,79,30.11,7.0,SSW,8.1,-,N/A,,Overcast,200,2013-08-26 07:53:00
4:53 AM,68.0,60.1,76,30.10,6.0,SSW,6.9,-,N/A,,Haze,210,2013-08-26 08:53:00
5:53 AM,69.1,61.0,75,30.10,6.0,SSW,9.2,-,N/A,,Haze,200,2013-08-26 09:53:00
6:53 AM,70.0,60.1,71,30.10,9.0,SSW,9.2,-,N/A,,Overcast,200,2013-08-26 10:53:00
7:53 AM,72.0,59.0,64,30.10,10.0,SSW,9.2,-,N/A,,Mostly Cloudy,210,2013-08-26 11:53:00
8:53 AM,73.0,60.1,64,30.10,10.0,SW,9.2,-,N/A,,Mostly Cloudy,230,2013-08-26 12:53:00
9:53 AM,72.0,62.1,71,30.09,9.0,WSW,6.9,-,0.01,Rain,Light Rain,240,2013-08-26 13:53:00
10:53 AM,70.0,64.0,81,30.07,9.0,SSW,9.2,-,0.04,,Scattered Clouds,210,2013-08-26 14:53:00
11:53 AM,73.0,64.0,73,30.08,6.0,SW,6.9,-,N/A,,Haze,230,2013-08-26 15:53:00
12:53 PM,77.0,64.9,66,30.03,5.0,WSW,9.2,-,N/A,,Haze,240,2013-08-26 16:53:00
1:53 PM,80.1,66.0,62,30.00,7.0,West,5.8,-,N/A,,Clear,260,2013-08-26 17:53:00
2:53 PM,81.0,66.0,60,30.00,6.0,West,11.5,-,N/A,,Haze,260,2013-08-26 18:53:00
3:53 PM,75.9,66.9,74,30.00,5.0,Calm,Calm,-,0.01,Rain,Light Rain,0,2013-08-26 19:53:00
4:05 PM,73.4,69.8,88,30.03,2.5,NNW,13.8,27.6,0.04,Rain-Thunderstorm,Light Thunderstorms and Rain,330,2013-08-26 20:05:00
4:09 PM,71.6,68.0,88,30.04,0.8,NW,10.4,27.6,0.13,Rain-Thunderstorm,Heavy Thunderstorms and Rain,320,2013-08-26 20:09:00
4:17 PM,69.8,68.0,94,30.03,0.5,Variable,6.9,-,0.30,Fog-Rain-Thunderstorm,Heavy Thunderstorms and Rain,0,2013-08-26 20:17:00
4:26 PM,69.8,66.2,88,30.02,2.0,WNW,6.9,-,0.32,Rain-Thunderstorm,Thunderstorms and Rain,300,2013-08-26 20:26:00
4:29 PM,69.8,66.2,88,30.02,2.5,NW,5.8,-,0.33,Rain-Thunderstorm,Thunderstorms and Rain,310,2013-08-26 20:29:00
4:44 PM,69.8,66.2,88,30.00,4.0,WNW,3.5,-,0.35,Rain-Thunderstorm,Light Thunderstorms and Rain,290,2013-08-26 20:44:00
4:49 PM,69.8,66.2,88,29.99,2.0,Calm,Calm,-,0.37,Rain-Thunderstorm,Thunderstorms and Rain,0,2013-08-26 20:49:00
4:53 PM,70.0,66.9,90,29.98,1.8,SW,3.5,-,0.38,Rain-Thunderstorm,Thunderstorms and Rain,220,2013-08-26 20:53:00
5:00 PM,69.8,68.0,94,29.98,2.0,South,5.8,-,0.02,Rain,Rain,180,2013-08-26 21:00:00
5:06 PM,69.8,68.0,94,29.97,3.0,South,8.1,-,0.03,Rain,Rain,180,2013-08-26 21:06:00
5:53 PM,71.1,68.0,90,29.94,7.0,WSW,4.6,-,0.05,Rain,Light Rain,250,2013-08-26 21:53:00
6:53 PM,71.1,68.0,90,29.93,4.0,Calm,Calm,-,0.00,Rain,Light Rain,0,2013-08-26 22:53:00
7:09 PM,69.8,68.0,94,29.96,3.0,Calm,Calm,-,0.00,,Mostly Cloudy,0,2013-08-26 23:09:00
7:47 PM,69.8,66.2,88,29.96,2.0,Calm,Calm,-,0.04,Rain,Rain,0,2013-08-26 23:47:00
7:48 PM,69.1,66.9,93,29.94,2.0,Calm,Calm,-,0.04,Rain,Light Rain,0,2013-08-26 23:48:00
7:51 PM,69.8,66.2,88,29.96,3.0,Calm,Calm,-,0.00,Rain,Light Rain,0,2013-08-26 23:51:00
8:05 PM,69.8,66.2,88,29.96,2.0,Calm,Calm,-,0.02,Rain,Light Rain,0,2013-08-27 00:05:00
8:15 PM,69.8,66.2,88,29.96,3.0,Calm,Calm,-,0.03,Rain,Light Rain,0,2013-08-27 00:15:00
8:38 PM,69.8,66.2,88,29.97,5.0,Calm,Calm,-,0.03,,Overcast,0,2013-08-27 00:38:00
8:53 PM,69.1,66.9,93,29.95,4.0,Calm,Calm,-,0.03,,Overcast,0,2013-08-27 00:53:00
9:20 PM,69.8,66.2,88,29.98,2.0,Calm,Calm,-,0.03,Rain,Rain,0,2013-08-27 01:20:00
9:31 PM,69.8,66.2,88,29.97,3.0,Calm,Calm,-,0.03,Rain,Light Rain,0,2013-08-27 01:31:00
9:53 PM,69.1,66.9,93,29.96,3.0,NNW,3.5,-,0.05,Rain,Light Rain,340,2013-08-27 01:53:00
10:15 PM,69.8,66.2,88,29.97,4.0,West,6.9,-,0.02,Rain,Heavy Rain,260,2013-08-27 02:15:00
10:38 PM,69.8,66.2,88,29.97,2.0,West,4.6,-,0.06,Rain,Rain,280,2013-08-27 02:38:00
10:44 PM,69.8,66.2,88,29.97,3.0,West,9.2,-,0.07,Rain,Light Rain,260,2013-08-27 02:44:00
10:53 PM,70.0,66.0,87,29.95,5.0,West,6.9,-,0.08,Rain,Light Rain,260,2013-08-27 02:53:00
11:30 PM,69.8,66.2,88,29.96,7.0,Variable,5.8,-,0.00,,Overcast,0,2013-08-27 03:30:00
11:53 PM,70.0,66.0,87,29.95,7.0,West,6.9,-,0.00,,Overcast,280,2013-08-27 03:53:00